Weather in Verkh-Taymenka

Russia / Kemerovo Oblast     55°39′33″N   85°12′08″E
temp.,
°C
wind,
m/s
gust,
m/s
humid.,
%
clouds,
%
prec.,
mm/h
press.,
hPa
HPBL,
m
16 may, sun
sun1601:00+13w1294100 5.8 101547
04:00+12nw2495100 0.1 101481
07:00+13ese019394 0.1 1014113
10:00+18wsw127591 0.3 1013657
13:00+21wnw5857100 0.4 10111629
16:00+18nne557579 1.3 1010539
19:00+14nne3594100 10.1 1011258
22:00+11ene349685 0.3 1013125
17 may, mon
mon1701:00+11ne359465 0.4 1013176
04:00+10ne249484 0.0 1013203
07:00+9nne3488100 0.0 1015220
10:00+13n226794 0.0 1015693
13:00+16wnw4556100 0.0 10151421
16:00+14nw346496 0.0 1015758
19:00+16nw2461100 0.1 1014839
22:00+12se3381100 1.3 101378
18 may, tue
tue1801:00+12sse379596 10.3 1011179
04:00+12s41096100 0.1 1009272
07:00+12se2295100 0.6 100597
10:00+15wsw359267 3.6 1004412
13:00+19w466856 3.8 10031231
16:00+19nw367090 1.5 1000289
19:00+17wnw7137816 4.0 10001058
22:00+10n71193100 0.8 1003562
19 may, wed
wed1901:00+8n4894100 0.8 1005476
04:00+8nne5894100 0.3 1006661
07:00+5nne61190100 3.8 1009572
10:00+8nne7106195 0.0 1009922
13:00+10nne7842100 0.0 10101659
16:00+11n793999 0.0 10102082
19:00+9n79459 0.0 10121988
22:00+4nnw33544 0.0 101338
20 may, thu
thu2001:00+3nw336499 0.0 101447
04:00+2nnw3870100 0.0 1014249
07:00+3nnw486294 0.0 1015451
10:00+5nnw684189 0.0 10162280
13:00+6nnw6840100 0.0 10162794
16:00+7nnw5737100 0.0 10162520
19:00+8nw464110 0.0 10172188
22:00+3nw34570 0.0 101955